Regional Weather Roundup
Issued by NWS

Home | Current Version | Previous Version | Text Only | Print | Product List | Glossary Off
Versions: 1 2 3 4 5 6 7 8 9 10 11 12 13 14 15 16 17 18 19 20 21 22 23 24 25 26 27 28 29 30 31 32 33 34 35 36 37 38 39 40 41 42 43 44 45 46 47 48 49 50

612
ASUS45 KCYS 171910
RWRWY

WYOMING REGIONAL WEATHER ROUNDUP
NATIONAL WEATHER SERVICE CHEYENNE WY
1200 PM MST WED JAN 17 2018

NOTE:  "FAIR" INDICATES FEW OR NO CLOUDS BELOW 12,000 FEET
WITH NO SIGNIFICANT WEATHER AND/OR OBSTRUCTIONS TO VISIBILITY.

WYZ001-172000-
YELLOWSTONE NATIONAL PARK

CITY           SKY/WX    TMP DP  RH WIND       PRES   REMARKS
LK YELLOWSTONE   N/A     20  15  81 CALM      30.39F
W YELLOWSTONE  NOT AVBL

$$
WYZ002>013-054>058-071-098>099-172000-
NORTHERN WYOMING

CITY           SKY/WX    TMP DP  RH WIND       PRES   REMARKS
JACKSON        FAIR      27  11  51 SE3       30.44F
CODY           FAIR      23  14  68 NE12      30.28F WCI  12
GREYBULL       FAIR      15   6  67 NE5       30.34F WCI   8
WORLAND        FAIR      16   9  74 CALM      30.34F
SHERIDAN       FAIR      38  21  50 SW3       30.25F
BUFFALO        FAIR      41  15  35 S15       30.27F
GILLETTE         N/A     38  21  50 MISG      30.27F
HULETT         FAIR      37  19  48 SW8       30.26F WCI  31
NEWCASTLE      FAIR      34  18  51 NW10      30.28F WCI  26

$$
WYZ014>020-022>026-101>103-172000-
CENTRAL WYOMING

CITY           SKY/WX    TMP DP  RH WIND       PRES   REMARKS
BIG PINEY      FAIR      33  18  53 S6        30.38F WCI  28
PINEDALE       FAIR      28  18  64 CALM      30.38F
DUBOIS         FAIR      37  10  32 NW6       30.31F WCI  33
LANDER         FAIR      23  17  78 SE6       30.33F WCI  16
RIVERTON       FAIR      22  16  78 CALM      30.36F
CASPER         FAIR      39  14  36 SW20      30.31F WCI  29
DOUGLAS        FAIR      42  21  43 NW10      30.31F

$$
WYZ021-027>030-104>119-172000-
SOUTHERN WYOMING

CITY           SKY/WX    TMP DP  RH WIND       PRES   REMARKS
EVANSTON       FAIR      36  26  67 SW8       30.40F WCI  30
FORT BRIDGER   FAIR      41  26  53 W7        30.42F
ROCK SPRINGS   FAIR      35  19  52 W9        30.38F WCI  28
DIXON            N/A     34   9  35 CALM      30.41F
RAWLINS        FAIR      38  13  35 SW15      30.35F WCI  29
SARATOGA       FAIR      37  12  35 CALM      30.36F
LARAMIE        FAIR      34  10  37 NE7       30.32F WCI  28
CHEYENNE       FAIR      45  12  26 NW24G33   30.28F
TORRINGTON     FAIR      44  22  41 NW9       30.27F

$$




USA.gov is the U.S. government's official web portal to all federal, state and local government web resources and services.